CFG3TN EDDB-EDDF

Flight info

Callsign CFG3TN
Flight time 0h 43m
Altitude 22000
Route SUKIP3Z SUKIP DCT MAXAN DCT ORTAG T177 ODIPI/N0400F210 T157 KERAX KERAX5A
Aircraft A320/M-SDE3FGHIRWY/LB1

Departure

Time 2026-05-07 13:39
Airport Berlin Brandenburg Airport (EDDB)

Arrival

Time 2026-05-07 14:22
Airport Frankfurt Main Airport (EDDF)
Time Latitude Longitude Altitude Speed Heading
2026-05-07 13:04 52.36134 13.50766 159 ft 0 kts 66°
2026-05-07 13:25 52.36125 13.50733 158 ft 4 kts 67°
2026-05-07 13:26 52.36115 13.50692 158 ft 4 kts 68°
2026-05-07 13:26 52.36105 13.50651 158 ft 4 kts 69°
2026-05-07 13:26 52.36096 13.50609 158 ft 4 kts 75°
2026-05-07 13:26 52.36091 13.50567 158 ft 4 kts 97°
2026-05-07 13:27 52.36098 13.50540 158 ft 1 kts 159°
2026-05-07 13:29 52.36097 13.50540 158 ft 2 kts 159°
2026-05-07 13:29 52.36066 13.50560 158 ft 8 kts 159°
2026-05-07 13:29 52.35994 13.50604 158 ft 13 kts 159°
2026-05-07 13:30 52.35905 13.50651 158 ft 14 kts 179°
2026-05-07 13:30 52.35862 13.50642 158 ft 0 kts 188°
2026-05-07 13:30 52.35858 13.50641 158 ft 2 kts 188°
2026-05-07 13:31 52.35849 13.50639 158 ft 0 kts 188°
2026-05-07 13:33 52.35807 13.50635 158 ft 9 kts 181°
2026-05-07 13:33 52.35780 13.50631 158 ft 0 kts 190°
2026-05-07 13:33 52.35765 13.50604 158 ft 5 kts 227°
2026-05-07 13:34 52.35752 13.50560 158 ft 4 kts 253°
2026-05-07 13:34 52.35723 13.50408 158 ft 9 kts 251°
2026-05-07 13:34 52.35703 13.50320 158 ft 7 kts 248°
2026-05-07 13:35 52.35684 13.50245 158 ft 10 kts 244°
2026-05-07 13:35 52.35610 13.50177 158 ft 14 kts 175°
2026-05-07 13:35 52.35552 13.50081 158 ft 12 kts 250°
2026-05-07 13:35 52.35516 13.49939 158 ft 14 kts 248°
2026-05-07 13:36 52.35475 13.49770 158 ft 20 kts 248°
2026-05-07 13:36 52.35425 13.49559 158 ft 20 kts 249°
2026-05-07 13:36 52.35373 13.49338 158 ft 21 kts 251°
2026-05-07 13:36 52.35322 13.49118 158 ft 20 kts 246°
2026-05-07 13:37 52.35267 13.48904 158 ft 20 kts 248°
2026-05-07 13:37 52.35220 13.48691 158 ft 21 kts 249°
2026-05-07 13:37 52.35158 13.48517 158 ft 13 kts 200°
2026-05-07 13:37 52.35105 13.48619 157 ft 16 kts 102°
2026-05-07 13:38 52.35083 13.48840 155 ft 23 kts 98°
2026-05-07 13:38 52.35087 13.49134 154 ft 31 kts 72°
2026-05-07 13:38 52.35242 13.49785 154 ft 95 kts 69°
2026-05-07 13:38 52.35555 13.51107 175 ft 149 kts 69°
2026-05-07 13:39 52.35935 13.52760 608 ft 161 kts 71°
2026-05-07 13:39 52.35895 13.54562 1347 ft 166 kts 118°
2026-05-07 13:39 52.35071 13.55896 2066 ft 171 kts 140°
2026-05-07 13:39 52.33874 13.56538 2374 ft 200 kts 181°
2026-05-07 13:40 52.32483 13.55815 2701 ft 223 kts 212°
2026-05-07 13:40 52.31196 13.54218 3056 ft 243 kts 218°
2026-05-07 13:40 52.29823 13.52420 3540 ft 263 kts 219°
2026-05-07 13:40 52.28369 13.50514 4324 ft 271 kts 219°
2026-05-07 13:41 52.27051 13.48314 5211 ft 274 kts 238°
2026-05-07 13:41 52.26342 13.45430 6026 ft 278 kts 262°
2026-05-07 13:41 52.26279 13.42270 6846 ft 280 kts 272°
2026-05-07 13:41 52.26295 13.39064 7628 ft 284 kts 271°
2026-05-07 13:42 52.26303 13.35824 8491 ft 287 kts 270°
2026-05-07 13:42 52.26303 13.32557 9351 ft 289 kts 270°
2026-05-07 13:42 52.26300 13.29292 10120 ft 294 kts 270°
2026-05-07 13:42 52.26294 13.25823 10540 ft 313 kts 270°
2026-05-07 13:43 52.26287 13.22140 10773 ft 336 kts 270°
2026-05-07 13:43 52.26277 13.18254 10990 ft 357 kts 270°
2026-05-07 13:43 52.26265 13.14156 11538 ft 365 kts 270°
2026-05-07 13:43 52.26254 13.10000 12219 ft 368 kts 270°
2026-05-07 13:44 52.26242 13.05805 12946 ft 371 kts 269°
2026-05-07 13:44 52.26225 13.01580 13625 ft 374 kts 269°
2026-05-07 13:44 52.26204 12.97306 14237 ft 378 kts 269°
2026-05-07 13:44 52.26180 12.93003 14854 ft 380 kts 270°
2026-05-07 13:45 52.26158 12.88670 15464 ft 383 kts 270°
2026-05-07 13:45 52.26139 12.84316 16088 ft 385 kts 270°
2026-05-07 13:45 52.26119 12.79925 16678 ft 388 kts 270°
2026-05-07 13:45 52.26032 12.75511 17281 ft 392 kts 263°
2026-05-07 13:46 52.25299 12.71220 17871 ft 395 kts 245°
2026-05-07 13:46 52.23829 12.67417 18442 ft 398 kts 233°
2026-05-07 13:46 52.22173 12.63778 18972 ft 401 kts 233°
2026-05-07 13:46 52.20518 12.60176 19474 ft 404 kts 233°
2026-05-07 13:47 52.18826 12.56505 19987 ft 406 kts 233°
2026-05-07 13:47 52.17123 12.52809 20484 ft 409 kts 233°
2026-05-07 13:47 52.15407 12.49086 20969 ft 412 kts 233°
2026-05-07 13:47 52.13681 12.45349 21436 ft 415 kts 233°
2026-05-07 13:48 52.11944 12.41589 21897 ft 417 kts 233°
2026-05-07 13:48 52.10198 12.37810 22301 ft 421 kts 233°
2026-05-07 13:48 52.08424 12.33974 22680 ft 425 kts 234°
2026-05-07 13:48 52.06644 12.30130 23158 ft 426 kts 233°
2026-05-07 13:49 52.04859 12.26279 23596 ft 428 kts 233°
2026-05-07 13:49 52.03060 12.22396 23924 ft 431 kts 233°
2026-05-07 13:49 52.01250 12.18496 24260 ft 433 kts 233°
2026-05-07 13:49 51.99430 12.14590 24606 ft 435 kts 233°
2026-05-07 13:50 51.97599 12.10671 24922 ft 437 kts 233°
2026-05-07 13:50 51.95759 12.06734 25233 ft 439 kts 233°
2026-05-07 13:50 51.93907 12.02780 25605 ft 441 kts 233°
2026-05-07 13:50 51.92046 11.98806 25956 ft 444 kts 233°
2026-05-07 13:51 51.90176 11.94811 26292 ft 447 kts 233°
2026-05-07 13:51 51.88293 11.90794 26634 ft 449 kts 233°
2026-05-07 13:51 51.86397 11.86763 26944 ft 451 kts 232°
2026-05-07 13:51 51.84485 11.82714 27232 ft 454 kts 232°
2026-05-07 13:52 51.82563 11.78660 27541 ft 455 kts 232°
2026-05-07 13:52 51.80637 11.74601 27812 ft 456 kts 232°
2026-05-07 13:52 51.78702 11.70527 28007 ft 456 kts 231°
2026-05-07 13:53 51.74890 11.62488 28054 ft 452 kts 232°
2026-05-07 13:53 51.71070 11.54456 28060 ft 451 kts 232°
2026-05-07 13:54 51.67209 11.46386 28052 ft 456 kts 231°
2026-05-07 13:54 51.63330 11.38311 28052 ft 456 kts 231°
2026-05-07 13:55 51.59447 11.30220 28060 ft 457 kts 232°
2026-05-07 13:55 51.55549 11.22149 28049 ft 456 kts 231°
2026-05-07 13:56 51.51649 11.14116 28046 ft 456 kts 231°
2026-05-07 13:56 51.47943 11.05884 28043 ft 455 kts 240°
2026-05-07 13:57 51.44878 10.97016 28038 ft 454 kts 240°
2026-05-07 13:57 51.41815 10.88247 28035 ft 453 kts 240°
2026-05-07 13:58 51.38727 10.79441 28026 ft 453 kts 240°
2026-05-07 13:58 51.35634 10.70657 28020 ft 453 kts 240°
2026-05-07 13:59 51.32536 10.61889 28021 ft 453 kts 240°
2026-05-07 13:59 51.29429 10.53113 28021 ft 453 kts 240°
2026-05-07 14:00 51.26068 10.44664 28062 ft 449 kts 230°
2026-05-07 14:00 51.22160 10.36922 27859 ft 447 kts 230°
2026-05-07 14:00 51.20217 10.33076 26998 ft 444 kts 231°
2026-05-07 14:01 51.18193 10.29350 25949 ft 446 kts 224°
2026-05-07 14:01 51.15805 10.26230 25182 ft 443 kts 213°
2026-05-07 14:01 51.13168 10.23869 24496 ft 438 kts 204°
2026-05-07 14:01 51.10296 10.22273 23935 ft 438 kts 193°
2026-05-07 14:02 51.07296 10.21485 23377 ft 436 kts 184°
2026-05-07 14:02 51.04276 10.21367 22770 ft 433 kts 180°
2026-05-07 14:02 51.01272 10.21314 22177 ft 430 kts 180°
2026-05-07 14:02 50.98286 10.21264 21591 ft 427 kts 181°
2026-05-07 14:03 50.95326 10.21213 21020 ft 424 kts 181°
2026-05-07 14:03 50.92371 10.21162 20455 ft 421 kts 181°
2026-05-07 14:03 50.89447 10.21114 19902 ft 419 kts 181°
2026-05-07 14:03 50.86555 10.20928 19348 ft 414 kts 189°
2026-05-07 14:04 50.83807 10.19681 18822 ft 411 kts 204°
2026-05-07 14:04 50.81325 10.17489 18293 ft 408 kts 216°
2026-05-07 14:04 50.79115 10.14719 17702 ft 404 kts 224°
2026-05-07 14:04 50.77187 10.11512 17112 ft 400 kts 231°
2026-05-07 14:05 50.75392 10.08175 16557 ft 397 kts 231°
2026-05-07 14:05 50.73607 10.04935 16402 ft 384 kts 230°
2026-05-07 14:05 50.71897 10.01872 16274 ft 370 kts 230°
2026-05-07 14:05 50.70232 9.98897 15953 ft 353 kts 230°
2026-05-07 14:06 50.68625 9.96023 15256 ft 347 kts 231°
2026-05-07 14:06 50.67040 9.93178 14511 ft 342 kts 231°
2026-05-07 14:06 50.65485 9.90380 13776 ft 339 kts 230°
2026-05-07 14:06 50.63928 9.87581 13196 ft 338 kts 231°
2026-05-07 14:07 50.62384 9.84808 12805 ft 335 kts 231°
2026-05-07 14:07 50.60851 9.82054 12383 ft 333 kts 230°
2026-05-07 14:07 50.59330 9.79325 11932 ft 330 kts 230°
2026-05-07 14:07 50.57818 9.76616 11492 ft 328 kts 230°
2026-05-07 14:08 50.56316 9.73930 11119 ft 326 kts 230°
2026-05-07 14:08 50.54815 9.71247 11029 ft 326 kts 230°
2026-05-07 14:08 50.53308 9.68561 11043 ft 328 kts 230°
2026-05-07 14:08 50.51808 9.65868 11047 ft 328 kts 231°
2026-05-07 14:09 50.50323 9.63148 11043 ft 328 kts 231°
2026-05-07 14:09 50.48849 9.60419 11044 ft 328 kts 231°
2026-05-07 14:09 50.47378 9.57685 10800 ft 327 kts 231°
2026-05-07 14:09 50.45916 9.54969 10486 ft 325 kts 232°
2026-05-07 14:10 50.44456 9.52269 10170 ft 322 kts 231°
2026-05-07 14:10 50.43035 9.49653 10037 ft 309 kts 231°
2026-05-07 14:10 50.41661 9.47132 9911 ft 298 kts 231°
2026-05-07 14:10 50.40337 9.44710 9719 ft 289 kts 231°
2026-05-07 14:11 50.39036 9.42330 9379 ft 286 kts 232°
2026-05-07 14:11 50.37749 9.39971 9006 ft 284 kts 232°
2026-05-07 14:11 50.36474 9.37634 8632 ft 281 kts 231°
2026-05-07 14:11 50.35205 9.35311 8254 ft 279 kts 231°
2026-05-07 14:12 50.33945 9.33008 7882 ft 278 kts 231°
2026-05-07 14:12 50.32694 9.30722 7527 ft 276 kts 232°
2026-05-07 14:12 50.31470 9.28480 7182 ft 273 kts 231°
2026-05-07 14:12 50.30237 9.26228 6802 ft 272 kts 231°
2026-05-07 14:13 50.28998 9.23969 6444 ft 269 kts 231°
2026-05-07 14:13 50.27779 9.21753 6041 ft 268 kts 231°
2026-05-07 14:13 50.26569 9.19556 5664 ft 267 kts 231°
2026-05-07 14:13 50.25378 9.17394 5284 ft 265 kts 231°
2026-05-07 14:14 50.24179 9.15219 4902 ft 263 kts 231°
2026-05-07 14:14 50.22987 9.13056 4473 ft 262 kts 231°
2026-05-07 14:14 50.21799 9.10900 4078 ft 261 kts 230°
2026-05-07 14:14 50.20616 9.08762 3994 ft 261 kts 231°
2026-05-07 14:15 50.19425 9.06614 4001 ft 262 kts 231°
2026-05-07 14:15 50.18232 9.04467 4000 ft 258 kts 231°
2026-05-07 14:15 50.17095 9.02425 4000 ft 240 kts 231°
2026-05-07 14:15 50.16023 9.00500 4012 ft 233 kts 232°
2026-05-07 14:16 50.14968 8.98599 4005 ft 232 kts 231°
2026-05-07 14:16 50.13914 8.96696 4004 ft 231 kts 231°
2026-05-07 14:16 50.13204 8.95412 4008 ft 231 kts 231°
2026-05-07 14:16 50.12264 8.93437 4002 ft 229 kts 245°
2026-05-07 14:17 50.11654 8.91124 4005 ft 224 kts 252°
2026-05-07 14:17 50.11156 8.88939 4001 ft 209 kts 252°
2026-05-07 14:17 50.10681 8.86894 4036 ft 193 kts 252°
2026-05-07 14:17 50.10229 8.84963 3907 ft 187 kts 252°
2026-05-07 14:18 50.09783 8.83065 3671 ft 186 kts 252°
2026-05-07 14:18 50.09333 8.81153 3453 ft 185 kts 253°
2026-05-07 14:18 50.08889 8.79268 3199 ft 185 kts 252°
2026-05-07 14:18 50.08448 8.77399 2946 ft 179 kts 252°
2026-05-07 14:19 50.08045 8.75698 2729 ft 161 kts 252°
2026-05-07 14:19 50.07672 8.74121 2511 ft 151 kts 252°
2026-05-07 14:19 50.07316 8.72616 2304 ft 146 kts 252°
2026-05-07 14:19 50.07034 8.71117 2047 ft 144 kts 263°
2026-05-07 14:20 50.06913 8.69577 1687 ft 143 kts 266°
2026-05-07 14:20 50.06763 8.68066 1465 ft 142 kts 257°
2026-05-07 14:20 50.06409 8.66622 1332 ft 143 kts 249°
2026-05-07 14:20 50.06051 8.65183 1133 ft 141 kts 251°
2026-05-07 14:21 50.05710 8.63747 959 ft 141 kts 250°
2026-05-07 14:21 50.05377 8.62332 813 ft 139 kts 250°
2026-05-07 14:21 50.05049 8.60935 644 ft 136 kts 250°
2026-05-07 14:21 50.04715 8.59556 480 ft 135 kts 250°
2026-05-07 14:22 50.04391 8.58184 393 ft 134 kts 250°
2026-05-07 14:22 50.04100 8.56943 364 ft 105 kts 248°
2026-05-07 14:22 50.03897 8.56137 361 ft 55 kts 250°
2026-05-07 14:22 50.03816 8.55774 360 ft 28 kts 249°
2026-05-07 14:23 50.03800 8.55557 360 ft 16 kts 318°
2026-05-07 14:23 50.03878 8.55495 363 ft 0 kts 341°
2026-05-07 14:23 50.03882 8.55493 363 ft 4 kts 341°
2026-05-07 14:24 50.03943 8.55470 361 ft 10 kts 349°
2026-05-07 14:24 50.04005 8.55447 363 ft 9 kts 343°
2026-05-07 14:24 50.04064 8.55414 363 ft 10 kts 339°
2026-05-07 14:24 50.04119 8.55437 366 ft 8 kts 63°
2026-05-07 14:25 50.04144 8.55544 366 ft 14 kts 70°
2026-05-07 14:25 50.04177 8.55678 362 ft 8 kts 69°
2026-05-07 14:25 50.04159 8.55717 362 ft 4 kts 154°
2026-05-07 14:25 50.04130 8.55733 362 ft 4 kts 160°
2026-05-07 14:26 50.04105 8.55747 363 ft 3 kts 160°
2026-05-07 14:26 50.04094 8.55754 362 ft 1 kts 159°
2026-05-07 14:26 50.04090 8.55756 363 ft 0 kts 159°